Time,TemperatureF,DewpointF,PressureIn,WindDirection,WindDirectionDegrees,WindSpeedMPH,WindSpeedGustMPH,Humidity,HourlyPrecipIn,Conditions,Clouds,dailyrainin,SoftwareType,DateUTC
2013-06-16 00:01:00,63.5,49.4,29.73,South,180,6.7,7.6,60,0.00,,,0.00,WUHU21623XXSP,2013-06-16 05:01:00,
2013-06-16 00:06:00,63.3,49.2,29.73,South,180,2.5,7.6,60,0.00,,,0.00,WUHU21623XXSP,2013-06-16 05:06:00,
2013-06-16 00:11:00,63.0,49.3,29.73,SSW,202,3.1,6.3,61,0.00,,,0.00,WUHU21623XXSP,2013-06-16 05:11:00,
2013-06-16 00:16:00,63.1,49.0,29.73,South,180,2.2,7.4,60,0.00,,,0.00,WUHU21623XXSP,2013-06-16 05:16:00,
2013-06-16 00:21:00,63.0,49.3,29.73,SSW,202,1.8,7.4,61,0.00,,,0.00,WUHU21623XXSP,2013-06-16 05:21:00,
2013-06-16 00:26:00,63.0,48.9,29.73,SW,225,3.4,6.5,60,0.00,,,0.00,WUHU21623XXSP,2013-06-16 05:26:00,
2013-06-16 00:31:00,62.8,48.7,29.73,SSE,157,0.0,6.5,60,0.00,,,0.00,WUHU21623XXSP,2013-06-16 05:31:00,
2013-06-16 00:36:00,63.0,48.9,29.73,WNW,292,0.0,8.3,60,0.00,,,0.00,WUHU21623XXSP,2013-06-16 05:36:00,
2013-06-16 00:41:00,62.4,49.2,29.73,WNW,292,0.0,8.3,62,0.00,,,0.00,WUHU21623XXSP,2013-06-16 05:41:00,
2013-06-16 00:46:00,62.2,49.5,29.73,SW,225,0.0,1.6,63,0.00,,,0.00,WUHU21623XXSP,2013-06-16 05:46:00,
2013-06-16 00:51:00,61.9,49.2,29.73,SW,225,0.0,1.8,63,0.00,,,0.00,WUHU21623XXSP,2013-06-16 05:51:00,
2013-06-16 00:56:00,61.5,48.8,29.73,SW,225,0.0,1.8,63,0.00,,,0.00,WUHU21623XXSP,2013-06-16 05:56:00,
2013-06-16 01:01:00,61.5,48.4,29.73,SSW,202,0.9,2.0,62,0.00,,,0.00,WUHU21623XXSP,2013-06-16 06:01:00,
2013-06-16 01:06:00,61.5,48.8,29.73,SW,225,0.0,3.1,63,0.00,,,0.00,WUHU21623XXSP,2013-06-16 06:06:00,
2013-06-16 01:11:00,61.5,48.8,29.73,SW,225,0.0,3.1,63,0.00,,,0.00,WUHU21623XXSP,2013-06-16 06:11:00,
2013-06-16 01:16:00,61.2,48.9,29.73,SSW,202,0.0,2.7,64,0.00,,,0.00,WUHU21623XXSP,2013-06-16 06:16:00,
2013-06-16 01:21:00,61.2,48.5,29.73,SSW,202,0.0,4.5,63,0.00,,,0.00,WUHU21623XXSP,2013-06-16 06:21:00,
2013-06-16 01:26:00,61.0,48.8,29.73,SSW,202,0.0,4.5,64,0.00,,,0.00,WUHU21623XXSP,2013-06-16 06:26:00,
2013-06-16 01:30:00,60.6,48.8,29.73,West,270,0.0,2.5,65,0.00,,,0.00,WUHU21623XXSP,2013-06-16 06:30:00,
2013-06-16 01:35:00,60.6,48.8,29.73,West,270,0.0,2.5,65,0.00,,,0.00,WUHU21623XXSP,2013-06-16 06:35:00,
2013-06-16 01:40:00,60.1,48.7,29.73,WSW,247,0.0,1.3,66,0.00,,,0.00,WUHU21623XXSP,2013-06-16 06:40:00,
2013-06-16 01:45:00,60.1,48.7,29.74,WSW,247,0.0,1.3,66,0.00,,,0.00,WUHU21623XXSP,2013-06-16 06:45:00,
2013-06-16 01:50:00,60.1,48.7,29.73,WSW,247,0.0,1.6,66,0.00,,,0.00,WUHU21623XXSP,2013-06-16 06:50:00,
2013-06-16 01:55:00,59.9,48.5,29.73,WSW,247,0.0,1.6,66,0.00,,,0.00,WUHU21623XXSP,2013-06-16 06:55:00,
2013-06-16 02:00:00,60.1,48.7,29.73,WSW,247,0.0,1.1,66,0.00,,,0.00,WUHU21623XXSP,2013-06-16 07:00:00,
2013-06-16 02:05:00,60.1,48.7,29.73,WSW,247,0.0,1.3,66,0.00,,,0.00,WUHU21623XXSP,2013-06-16 07:05:00,
2013-06-16 02:10:00,59.9,48.5,29.73,WSW,247,0.0,3.4,66,0.00,,,0.00,WUHU21623XXSP,2013-06-16 07:10:00,
2013-06-16 02:15:00,59.9,48.9,29.73,SW,225,0.0,4.0,67,0.00,,,0.00,WUHU21623XXSP,2013-06-16 07:15:00,
2013-06-16 02:20:00,59.5,48.6,29.73,SW,225,0.0,4.0,67,0.00,,,0.00,WUHU21623XXSP,2013-06-16 07:20:00,
2013-06-16 02:25:00,59.5,49.0,29.73,SW,225,0.0,2.5,68,0.00,,,0.00,WUHU21623XXSP,2013-06-16 07:25:00,
2013-06-16 02:30:00,58.8,48.7,29.73,SW,225,0.0,1.6,69,0.00,,,0.00,WUHU21623XXSP,2013-06-16 07:30:00,
2013-06-16 02:35:00,58.8,48.7,29.73,SW,225,0.0,0.9,69,0.00,,,0.00,WUHU21623XXSP,2013-06-16 07:35:00,
2013-06-16 02:40:00,58.8,48.7,29.73,SW,225,0.0,0.0,69,0.00,,,0.00,WUHU21623XXSP,2013-06-16 07:40:00,
2013-06-16 02:45:00,58.6,48.9,29.73,SW,225,0.0,0.0,70,0.00,,,0.00,WUHU21623XXSP,2013-06-16 07:45:00,
2013-06-16 02:50:00,58.5,48.7,29.73,SW,225,0.0,0.0,70,0.00,,,0.00,WUHU21623XXSP,2013-06-16 07:50:00,
2013-06-16 02:55:00,58.3,48.6,29.73,SW,225,0.0,0.0,70,0.00,,,0.00,WUHU21623XXSP,2013-06-16 07:55:00,
2013-06-16 03:00:00,57.7,48.7,29.73,SW,225,0.0,0.0,72,0.00,,,0.00,WUHU21623XXSP,2013-06-16 08:00:00,
2013-06-16 03:05:00,57.4,49.1,29.73,SW,225,0.0,0.0,74,0.00,,,0.00,WUHU21623XXSP,2013-06-16 08:05:00,
2013-06-16 03:10:00,56.8,48.9,29.73,SW,225,0.0,0.0,75,0.00,,,0.00,WUHU21623XXSP,2013-06-16 08:10:00,
2013-06-16 03:15:00,57.0,48.7,29.73,SW,225,0.0,0.0,74,0.00,,,0.00,WUHU21623XXSP,2013-06-16 08:15:00,
2013-06-16 03:20:00,57.0,48.7,29.73,SSW,202,0.0,1.1,74,0.00,,,0.00,WUHU21623XXSP,2013-06-16 08:20:00,
2013-06-16 03:25:00,57.4,48.7,29.73,SSW,202,0.0,1.1,73,0.00,,,0.00,WUHU21623XXSP,2013-06-16 08:25:00,
2013-06-16 03:30:00,57.4,48.7,29.73,SW,225,0.0,0.0,73,0.00,,,0.00,WUHU21623XXSP,2013-06-16 08:30:00,
2013-06-16 03:35:00,57.0,48.7,29.73,SW,225,0.0,0.0,74,0.00,,,0.00,WUHU21623XXSP,2013-06-16 08:35:00,
2013-06-16 03:40:00,56.7,48.4,29.73,SW,225,0.0,0.0,74,0.00,,,0.00,WUHU21623XXSP,2013-06-16 08:40:00,
2013-06-16 03:45:00,56.5,48.6,29.73,SW,225,0.0,0.0,75,0.00,,,0.00,WUHU21623XXSP,2013-06-16 08:45:00,
2013-06-16 03:50:00,56.5,48.6,29.73,SW,225,0.0,0.0,75,0.00,,,0.00,WUHU21623XXSP,2013-06-16 08:50:00,
2013-06-16 03:55:00,56.1,48.3,29.73,SW,225,0.0,0.4,75,0.00,,,0.00,WUHU21623XXSP,2013-06-16 08:55:00,
2013-06-16 04:00:00,56.1,48.3,29.73,SW,225,0.0,0.4,75,0.00,,,0.00,WUHU21623XXSP,2013-06-16 09:00:00,
2013-06-16 04:05:00,56.1,48.3,29.73,SW,225,0.0,0.0,75,0.00,,,0.00,WUHU21623XXSP,2013-06-16 09:05:00,
2013-06-16 04:10:00,55.9,48.4,29.73,SW,225,0.0,0.0,76,0.00,,,0.00,WUHU21623XXSP,2013-06-16 09:10:00,
2013-06-16 04:15:00,55.8,48.6,29.73,SW,225,0.0,0.9,77,0.00,,,0.00,WUHU21623XXSP,2013-06-16 09:15:00,
2013-06-16 04:20:00,56.1,48.6,29.73,SW,225,0.0,0.9,76,0.00,,,0.00,WUHU21623XXSP,2013-06-16 09:20:00,
2013-06-16 04:25:00,56.1,48.6,29.73,SW,225,0.0,0.0,76,0.00,,,0.00,WUHU21623XXSP,2013-06-16 09:25:00,
2013-06-16 04:30:00,55.9,48.4,29.73,SW,225,0.0,0.0,76,0.00,,,0.00,WUHU21623XXSP,2013-06-16 09:30:00,
2013-06-16 04:35:00,55.8,48.6,29.73,SW,225,0.0,0.0,77,0.00,,,0.00,WUHU21623XXSP,2013-06-16 09:35:00,
2013-06-16 04:40:00,55.6,48.4,29.73,SW,225,0.0,1.6,77,0.00,,,0.00,WUHU21623XXSP,2013-06-16 09:40:00,
2013-06-16 04:45:00,55.4,48.3,29.73,SSW,202,0.0,1.6,77,0.00,,,0.00,WUHU21623XXSP,2013-06-16 09:45:00,
2013-06-16 04:50:00,55.8,48.3,29.73,SSW,202,0.0,2.0,76,0.00,,,0.00,WUHU21623XXSP,2013-06-16 09:50:00,
2013-06-16 04:55:00,55.9,48.4,29.73,SW,225,0.0,2.0,76,0.00,,,0.00,WUHU21623XXSP,2013-06-16 09:55:00,
2013-06-16 05:00:00,55.2,48.1,29.73,SW,225,0.0,0.4,77,0.00,,,0.00,WUHU21623XXSP,2013-06-16 10:00:00,
2013-06-16 05:05:00,54.5,48.1,29.73,SW,225,0.0,0.1,79,0.00,,,0.00,WUHU21623XXSP,2013-06-16 10:05:00,
2013-06-16 05:10:00,54.1,48.1,29.73,SW,225,0.0,0.0,80,0.00,,,0.00,WUHU21623XXSP,2013-06-16 10:10:00,
2013-06-16 05:15:00,54.3,47.9,29.73,SW,225,0.0,0.0,79,0.00,,,0.00,WUHU21623XXSP,2013-06-16 10:15:00,
2013-06-16 05:20:00,54.5,48.1,29.73,SW,225,0.0,0.0,79,0.00,,,0.00,WUHU21623XXSP,2013-06-16 10:20:00,
2013-06-16 05:25:00,55.0,49.0,29.73,SW,225,0.0,0.0,80,0.00,,,0.00,WUHU21623XXSP,2013-06-16 10:25:00,
2013-06-16 05:30:00,55.0,48.7,29.73,North,0,0.0,0.0,79,0.00,,,0.00,WUHU21623XXSP,2013-06-16 10:30:00,
2013-06-16 05:35:00,55.2,48.8,29.73,SW,225,0.0,0.0,79,0.00,,,0.00,WUHU21623XXSP,2013-06-16 10:35:00,
2013-06-16 05:40:00,54.5,48.8,29.73,SW,225,0.0,0.0,81,0.00,,,0.00,WUHU21623XXSP,2013-06-16 10:40:00,
2013-06-16 05:45:00,54.3,48.6,29.73,SW,225,0.0,0.0,81,0.00,,,0.00,WUHU21623XXSP,2013-06-16 10:45:00,
2013-06-16 05:50:00,54.0,48.6,29.73,SW,225,0.0,0.0,82,0.00,,,0.00,WUHU21623XXSP,2013-06-16 10:50:00,
2013-06-16 05:55:00,54.0,48.6,29.73,SW,225,0.0,0.0,82,0.00,,,0.00,WUHU21623XXSP,2013-06-16 10:55:00,
2013-06-16 06:00:00,54.1,48.8,29.74,SW,225,0.0,0.0,82,0.00,,,0.00,WUHU21623XXSP,2013-06-16 11:00:00,
2013-06-16 06:05:00,54.1,48.8,29.74,WSW,247,0.0,0.0,82,0.00,,,0.00,WUHU21623XXSP,2013-06-16 11:05:00,
2013-06-16 06:10:00,54.9,49.1,29.74,West,270,0.0,0.9,81,0.00,,,0.00,WUHU21623XXSP,2013-06-16 11:10:00,
2013-06-16 06:15:00,55.0,49.3,29.74,West,270,0.0,0.9,81,0.00,,,0.00,WUHU21623XXSP,2013-06-16 11:15:00,
2013-06-16 06:20:00,55.4,49.6,29.74,West,270,0.0,1.1,81,0.00,,,0.00,WUHU21623XXSP,2013-06-16 11:20:00,
2013-06-16 06:25:00,55.9,49.8,29.74,West,270,0.0,1.6,80,0.00,,,0.00,WUHU21623XXSP,2013-06-16 11:25:00,
2013-06-16 06:30:00,55.9,49.8,29.75,WNW,292,0.0,1.6,80,0.00,,,0.00,WUHU21623XXSP,2013-06-16 11:30:00,
2013-06-16 06:35:00,55.9,49.8,29.74,WNW,292,2.5,2.5,80,0.00,,,0.00,WUHU21623XXSP,2013-06-16 11:35:00,
2013-06-16 06:40:00,56.1,50.0,29.75,WNW,292,0.0,2.5,80,0.00,,,0.00,WUHU21623XXSP,2013-06-16 11:40:00,
2013-06-16 06:45:00,56.3,49.8,29.75,WNW,292,0.0,0.2,79,0.00,,,0.00,WUHU21623XXSP,2013-06-16 11:45:00,
2013-06-16 06:50:00,56.5,49.6,29.75,WNW,292,1.8,2.5,78,0.00,,,0.00,WUHU21623XXSP,2013-06-16 11:50:00,
2013-06-16 06:55:00,57.2,50.4,29.75,NW,315,1.8,3.1,78,0.00,,,0.00,WUHU21623XXSP,2013-06-16 11:55:00,
2013-06-16 07:00:00,57.4,50.2,29.75,NW,315,1.3,3.6,77,0.00,,,0.00,WUHU21623XXSP,2013-06-16 12:00:00,
2013-06-16 07:05:00,57.4,50.2,29.75,WNW,292,0.0,3.6,77,0.00,,,0.00,WUHU21623XXSP,2013-06-16 12:05:00,
2013-06-16 07:10:00,57.6,50.0,29.75,NW,315,1.8,6.5,76,0.00,,,0.00,WUHU21623XXSP,2013-06-16 12:10:00,
2013-06-16 07:15:00,57.6,50.4,29.75,NW,315,2.9,6.5,77,0.00,,,0.00,WUHU21623XXSP,2013-06-16 12:15:00,
2013-06-16 07:20:00,57.9,50.4,29.75,WNW,292,2.5,3.6,76,0.00,,,0.00,WUHU21623XXSP,2013-06-16 12:20:00,
2013-06-16 07:25:00,58.1,50.5,29.75,WNW,292,1.3,2.5,76,0.00,,,0.00,WUHU21623XXSP,2013-06-16 12:25:00,
2013-06-16 07:30:00,58.3,50.7,29.75,SW,225,0.0,4.7,76,0.00,,,0.00,WUHU21623XXSP,2013-06-16 12:30:00,
2013-06-16 07:35:00,58.6,50.4,29.76,NW,315,3.6,4.7,74,0.00,,,0.00,WUHU21623XXSP,2013-06-16 12:35:00,
2013-06-16 07:40:00,58.8,50.2,29.76,WNW,292,0.7,3.6,73,0.00,,,0.00,WUHU21623XXSP,2013-06-16 12:40:00,
2013-06-16 07:45:00,58.8,50.5,29.76,WNW,292,0.0,2.9,74,0.00,,,0.00,WUHU21623XXSP,2013-06-16 12:45:00,
2013-06-16 07:50:00,59.4,50.7,29.76,WNW,292,0.0,2.9,73,0.00,,,0.00,WUHU21623XXSP,2013-06-16 12:50:00,
2013-06-16 07:55:00,59.7,51.1,29.76,WSW,247,0.0,2.9,73,0.00,,,0.00,WUHU21623XXSP,2013-06-16 12:55:00,
2013-06-16 08:00:00,60.3,51.3,29.76,West,270,0.0,2.9,72,0.00,,,0.00,WUHU21623XXSP,2013-06-16 13:00:00,
2013-06-16 08:05:00,61.0,50.8,29.76,WSW,247,0.0,2.9,69,0.00,,,0.00,WUHU21623XXSP,2013-06-16 13:05:00,
2013-06-16 08:10:00,61.0,51.2,29.76,NW,315,0.0,2.7,70,0.00,,,0.00,WUHU21623XXSP,2013-06-16 13:10:00,
2013-06-16 08:15:00,61.0,51.2,29.77,North,0,0.0,0.0,70,0.56,,,0.56,WUHU21623XXSP,2013-06-16 13:15:00,
2013-06-16 08:17:00,61.0,51.2,29.76,North,0,0.0,0.0,70,0.56,,,0.56,WUHU21623XXSP,2013-06-16 13:17:00,
2013-06-16 08:20:00,61.0,51.2,29.76,North,0,0.0,0.0,70,0.56,,,0.56,WUHU21623XXSP,2013-06-16 13:20:00,
2013-06-16 08:25:00,61.0,51.2,29.76,North,0,0.0,0.0,70,0.56,,,0.56,WUHU21623XXSP,2013-06-16 13:25:00,
2013-06-16 09:38:00,70.2,53.7,29.75,North,0,0.0,0.0,56,0.00,,,0.56,WUHU21623XXSP,2013-06-16 14:38:00,
2013-06-16 09:43:00,70.0,54.6,29.75,ENE,67,0.0,2.9,58,0.00,,,0.56,WUHU21623XXSP,2013-06-16 14:43:00,
2013-06-16 09:48:00,70.9,53.3,29.76,SSW,202,0.0,4.5,54,0.00,,,0.56,WUHU21623XXSP,2013-06-16 14:48:00,
2013-06-16 09:53:00,71.8,54.2,29.76,WNW,292,0.0,6.0,54,0.00,,,0.56,WUHU21623XXSP,2013-06-16 14:53:00,
2013-06-16 09:58:00,72.1,55.5,29.76,West,270,0.9,8.1,56,0.00,,,0.56,WUHU21623XXSP,2013-06-16 14:58:00,
2013-06-16 10:03:00,72.3,55.7,29.75,WNW,292,0.9,8.1,56,0.00,,,0.56,WUHU21623XXSP,2013-06-16 15:03:00,
2013-06-16 10:08:00,73.2,55.0,29.75,WNW,292,0.7,5.1,53,0.00,,,0.56,WUHU21623XXSP,2013-06-16 15:08:00,
2013-06-16 10:13:00,72.7,54.5,29.75,West,270,3.8,6.3,53,0.00,,,0.56,WUHU21623XXSP,2013-06-16 15:13:00,
2013-06-16 10:18:00,73.0,53.8,29.75,WSW,247,1.3,7.6,51,0.00,,,0.56,WUHU21623XXSP,2013-06-16 15:18:00,
2013-06-16 10:23:00,73.4,54.6,29.75,WNW,292,4.3,8.7,52,0.00,,,0.56,WUHU21623XXSP,2013-06-16 15:23:00,
2013-06-16 10:28:00,74.1,54.8,29.75,NNW,337,10.3,10.3,51,0.00,,,0.56,WUHU21623XXSP,2013-06-16 15:28:00,
2013-06-16 10:33:00,73.6,53.8,29.75,WNW,292,0.9,10.3,50,0.00,,,0.56,WUHU21623XXSP,2013-06-16 15:33:00,
2013-06-16 10:38:00,73.8,55.5,29.75,West,270,3.8,8.9,53,0.00,,,0.56,WUHU21623XXSP,2013-06-16 15:38:00,
2013-06-16 10:43:00,74.3,54.5,29.75,WNW,292,7.6,7.8,50,0.00,,,0.56,WUHU21623XXSP,2013-06-16 15:43:00,
2013-06-16 10:48:00,74.8,56.0,29.75,NW,315,5.4,7.8,52,0.00,,,0.56,WUHU21623XXSP,2013-06-16 15:48:00,
2013-06-16 10:52:00,74.5,56.2,29.75,NW,315,1.8,11.6,53,0.00,,,0.56,WUHU21623XXSP,2013-06-16 15:52:00,
2013-06-16 10:57:00,75.6,55.1,29.75,WNW,292,4.0,11.6,49,0.00,,,0.56,WUHU21623XXSP,2013-06-16 15:57:00,
2013-06-16 11:02:00,75.4,53.7,29.75,SSW,202,4.5,9.2,47,0.00,,,0.56,WUHU21623XXSP,2013-06-16 16:02:00,
2013-06-16 11:07:00,75.4,54.3,29.75,NNW,337,7.4,7.4,48,0.00,,,0.56,WUHU21623XXSP,2013-06-16 16:07:00,
2013-06-16 11:12:00,75.4,54.3,29.75,West,270,3.8,8.7,48,0.00,,,0.56,WUHU21623XXSP,2013-06-16 16:12:00,
2013-06-16 11:17:00,75.7,54.7,29.75,NNW,337,3.4,8.7,48,0.00,,,0.56,WUHU21623XXSP,2013-06-16 16:17:00,
2013-06-16 11:22:00,75.9,55.4,29.75,NW,315,2.9,11.2,49,0.00,,,0.56,WUHU21623XXSP,2013-06-16 16:22:00,
2013-06-16 11:27:00,75.9,54.8,29.75,WSW,247,8.3,11.2,48,0.00,,,0.56,WUHU21623XXSP,2013-06-16 16:27:00,
2013-06-16 11:32:00,77.0,54.6,29.75,West,270,0.0,13.0,46,0.00,,,0.56,WUHU21623XXSP,2013-06-16 16:32:00,
2013-06-16 11:37:00,76.8,52.6,29.74,WNW,292,8.3,13.0,43,0.00,,,0.56,WUHU21623XXSP,2013-06-16 16:37:00,
2013-06-16 11:42:00,74.5,53.5,29.74,West,270,1.6,13.2,48,0.00,,,0.56,WUHU21623XXSP,2013-06-16 16:42:00,
2013-06-16 11:47:00,76.3,54.5,29.74,WNW,292,3.4,13.2,47,0.00,,,0.56,WUHU21623XXSP,2013-06-16 16:47:00,
2013-06-16 11:52:00,75.9,53.6,29.74,NW,315,3.4,28.4,46,0.00,,,0.56,WUHU21623XXSP,2013-06-16 16:52:00,
2013-06-16 11:57:00,75.2,53.6,29.73,WSW,247,6.7,28.4,47,0.00,,,0.56,WUHU21623XXSP,2013-06-16 16:57:00,
2013-06-16 12:02:00,76.3,53.9,29.73,West,270,4.5,13.4,46,0.00,,,0.56,WUHU21623XXSP,2013-06-16 17:02:00,
2013-06-16 12:07:00,76.6,51.8,29.73,WNW,292,7.4,10.5,42,0.00,,,0.56,WUHU21623XXSP,2013-06-16 17:07:00,
2013-06-16 12:12:00,77.2,52.9,29.73,WSW,247,4.7,9.4,43,0.00,,,0.56,WUHU21623XXSP,2013-06-16 17:12:00,
2013-06-16 12:17:00,77.2,52.9,29.73,NNW,337,5.4,10.1,43,0.00,,,0.56,WUHU21623XXSP,2013-06-16 17:17:00,
2013-06-16 12:22:00,77.0,52.1,29.73,WNW,292,7.4,10.1,42,0.00,,,0.56,WUHU21623XXSP,2013-06-16 17:22:00,
2013-06-16 12:27:00,75.9,52.4,29.73,NW,315,6.3,8.9,44,0.00,,,0.56,WUHU21623XXSP,2013-06-16 17:27:00,
2013-06-16 12:32:00,74.3,50.9,29.73,South,180,1.8,10.1,44,0.00,,,0.56,WUHU21623XXSP,2013-06-16 17:32:00,
2013-06-16 12:37:00,73.0,50.9,29.73,WNW,292,8.3,10.1,46,0.00,,,0.56,WUHU21623XXSP,2013-06-16 17:37:00,
2013-06-16 12:42:00,72.1,50.7,29.74,WSW,247,6.7,9.8,47,0.00,,,0.56,WUHU21623XXSP,2013-06-16 17:42:00,
2013-06-16 12:47:00,70.3,53.4,29.75,South,180,6.5,8.3,55,0.00,,,0.56,WUHU21623XXSP,2013-06-16 17:47:00,
2013-06-16 12:52:00,66.0,56.0,29.76,West,270,1.3,8.5,70,0.02,,,0.58,WUHU21623XXSP,2013-06-16 17:52:00,
2013-06-16 12:57:00,61.5,53.5,29.75,SSE,157,6.0,8.5,75,0.04,,,0.60,WUHU21623XXSP,2013-06-16 17:57:00,
2013-06-16 13:02:00,60.6,53.8,29.75,SSW,202,1.3,7.8,78,0.04,,,0.60,WUHU21623XXSP,2013-06-16 18:02:00,
2013-06-16 13:07:00,59.7,53.6,29.74,SW,225,0.0,3.4,80,0.04,,,0.60,WUHU21623XXSP,2013-06-16 18:07:00,
2013-06-16 13:12:00,62.4,55.8,29.74,SW,225,0.0,3.4,79,0.04,,,0.60,WUHU21623XXSP,2013-06-16 18:12:00,
2013-06-16 13:17:00,64.2,56.1,29.74,SW,225,0.0,5.8,75,0.04,,,0.60,WUHU21623XXSP,2013-06-16 18:17:00,
2013-06-16 13:22:00,65.8,57.3,29.74,WSW,247,0.0,5.8,74,0.04,,,0.60,WUHU21623XXSP,2013-06-16 18:22:00,
2013-06-16 13:27:00,67.1,59.7,29.74,WSW,247,0.7,2.0,77,0.04,,,0.60,WUHU21623XXSP,2013-06-16 18:27:00,
2013-06-16 13:32:00,68.4,59.0,29.73,West,270,0.0,2.7,72,0.04,,,0.60,WUHU21623XXSP,2013-06-16 18:32:00,
2013-06-16 13:37:00,69.6,58.5,29.73,WNW,292,0.0,3.4,68,0.04,,,0.60,WUHU21623XXSP,2013-06-16 18:37:00,
2013-06-16 13:42:00,69.6,59.4,29.73,WNW,292,0.0,3.4,70,0.04,,,0.60,WUHU21623XXSP,2013-06-16 18:42:00,
2013-06-16 13:47:00,69.1,58.9,29.73,WNW,292,0.0,1.6,70,0.04,,,0.60,WUHU21623XXSP,2013-06-16 18:47:00,
2013-06-16 13:52:00,67.3,58.0,29.75,NW,315,2.7,6.0,72,0.02,,,0.60,WUHU21623XXSP,2013-06-16 18:52:00,
2013-06-16 13:57:00,65.1,57.7,29.75,NW,315,5.8,10.3,77,0.04,,,0.64,WUHU21623XXSP,2013-06-16 18:57:00,
2013-06-16 14:02:00,61.9,53.5,29.76,NW,315,4.0,10.5,74,0.06,,,0.66,WUHU21623XXSP,2013-06-16 19:02:00,
2013-06-16 14:07:00,58.6,53.3,29.73,ESE,112,2.0,10.5,82,0.08,,,0.68,WUHU21623XXSP,2013-06-16 19:07:00,
2013-06-16 14:12:00,57.7,52.9,29.74,South,180,2.7,7.2,84,0.08,,,0.68,WUHU21623XXSP,2013-06-16 19:12:00,
2013-06-16 14:17:00,57.9,53.1,29.74,SSE,157,1.1,7.2,84,0.08,,,0.68,WUHU21623XXSP,2013-06-16 19:17:00,
2013-06-16 14:22:00,58.1,53.0,29.75,South,180,0.0,4.3,83,0.08,,,0.68,WUHU21623XXSP,2013-06-16 19:22:00,
2013-06-16 14:27:00,58.8,54.3,29.76,NNE,22,0.0,3.6,85,0.08,,,0.68,WUHU21623XXSP,2013-06-16 19:27:00,
2013-06-16 14:32:00,60.6,55.4,29.76,NW,307,0.4,2.9,83,0.08,,,0.68,WUHU21623XXSP,2013-06-16 19:32:00,
2013-06-16 14:37:00,60.3,54.1,29.76,NW,315,0.0,8.5,80,0.08,,,0.68,WUHU21623XXSP,2013-06-16 19:37:00,
2013-06-16 14:42:00,60.1,54.6,29.78,WNW,292,2.2,8.5,82,0.08,,,0.68,WUHU21623XXSP,2013-06-16 19:42:00,
2013-06-16 14:47:00,59.7,53.6,29.77,WSW,247,0.0,2.2,80,0.10,,,0.70,WUHU21623XXSP,2013-06-16 19:47:00,
2013-06-16 14:52:00,59.4,53.9,29.76,NNW,337,0.0,2.9,82,0.10,,,0.70,WUHU21623XXSP,2013-06-16 19:52:00,
2013-06-16 14:57:00,59.0,52.9,29.75,WNW,292,0.7,2.9,80,0.06,,,0.70,WUHU21623XXSP,2013-06-16 19:57:00,
2013-06-16 15:02:00,58.8,53.7,29.75,WNW,292,0.0,2.9,83,0.04,,,0.70,WUHU21623XXSP,2013-06-16 20:02:00,
2013-06-16 15:07:00,58.8,54.0,29.74,WNW,292,0.0,0.7,84,0.02,,,0.70,WUHU21623XXSP,2013-06-16 20:07:00,
2013-06-16 15:12:00,58.5,54.0,29.74,WNW,292,0.0,0.1,85,0.02,,,0.70,WUHU21623XXSP,2013-06-16 20:12:00,
2013-06-16 15:17:00,59.4,55.2,29.75,WNW,292,0.0,0.0,86,0.02,,,0.70,WUHU21623XXSP,2013-06-16 20:17:00,
2013-06-16 15:22:00,62.4,56.8,29.75,WNW,292,0.0,1.6,82,0.02,,,0.70,WUHU21623XXSP,2013-06-16 20:22:00,
2013-06-16 15:27:00,64.0,57.4,29.74,WSW,247,0.0,3.1,79,0.02,,,0.70,WUHU21623XXSP,2013-06-16 20:27:00,
2013-06-16 15:32:00,64.8,57.0,29.75,West,270,2.7,3.1,76,0.02,,,0.70,WUHU21623XXSP,2013-06-16 20:32:00,
2013-06-16 15:37:00,65.8,56.2,29.74,WSW,247,2.5,3.6,71,0.02,,,0.70,WUHU21623XXSP,2013-06-16 20:37:00,
2013-06-16 15:42:00,66.4,56.7,29.74,WNW,292,0.0,3.6,71,0.02,,,0.70,WUHU21623XXSP,2013-06-16 20:42:00,
2013-06-16 15:47:00,66.0,57.5,29.74,WNW,292,0.0,2.0,74,0.00,,,0.70,WUHU21623XXSP,2013-06-16 20:47:00,
2013-06-16 15:52:00,66.0,57.8,29.75,WNW,292,0.0,2.0,75,0.00,,,0.70,WUHU21623XXSP,2013-06-16 20:52:00,
2013-06-16 15:57:00,65.8,57.7,29.74,WNW,292,0.0,0.7,75,0.00,,,0.70,WUHU21623XXSP,2013-06-16 20:57:00,
2013-06-16 16:02:00,65.5,56.9,29.75,WNW,292,0.0,0.0,74,0.00,,,0.70,WUHU21623XXSP,2013-06-16 21:02:00,
2013-06-16 16:07:00,64.9,58.3,29.75,WNW,292,0.0,0.0,79,0.00,,,0.70,WUHU21623XXSP,2013-06-16 21:07:00,
2013-06-16 16:12:00,64.6,55.7,29.75,South,180,0.0,4.7,73,0.00,,,0.70,WUHU21623XXSP,2013-06-16 21:12:00,
2013-06-16 16:17:00,64.6,55.7,29.75,SW,225,1.6,6.7,73,0.00,,,0.70,WUHU21623XXSP,2013-06-16 21:17:00,
2013-06-16 16:22:00,64.0,55.2,29.75,SW,225,0.7,6.7,73,0.00,,,0.70,WUHU21623XXSP,2013-06-16 21:22:00,
2013-06-16 16:27:00,63.5,56.1,29.75,SW,225,0.7,2.5,77,0.00,,,0.70,WUHU21623XXSP,2013-06-16 21:27:00,
2013-06-16 16:32:00,62.8,55.8,29.76,South,180,3.1,6.7,78,0.00,,,0.70,WUHU21623XXSP,2013-06-16 21:32:00,
2013-06-16 16:37:00,61.0,56.1,29.75,South,180,0.0,6.7,84,0.00,,,0.70,WUHU21623XXSP,2013-06-16 21:37:00,
2013-06-16 16:42:00,60.6,55.8,29.75,SSW,202,0.9,2.2,84,0.00,,,0.70,WUHU21623XXSP,2013-06-16 21:42:00,
2013-06-16 16:47:00,60.4,55.9,29.75,SSE,157,1.1,2.7,85,0.00,,,0.70,WUHU21623XXSP,2013-06-16 21:47:00,
2013-06-16 16:52:00,60.6,56.4,29.73,SSE,157,0.0,2.7,86,0.00,,,0.70,WUHU21623XXSP,2013-06-16 21:52:00,
2013-06-16 16:57:00,60.6,56.4,29.73,SSE,157,0.0,2.0,86,0.00,,,0.70,WUHU21623XXSP,2013-06-16 21:57:00,
2013-06-16 17:02:00,61.5,57.3,29.74,SSE,157,0.0,0.0,86,0.00,,,0.70,WUHU21623XXSP,2013-06-16 22:02:00,
2013-06-16 17:07:00,62.2,58.0,29.74,SSE,157,0.0,0.0,86,0.00,,,0.70,WUHU21623XXSP,2013-06-16 22:07:00,
2013-06-16 17:12:00,62.2,58.0,29.74,SSE,157,0.0,0.0,86,0.00,,,0.70,WUHU21623XXSP,2013-06-16 22:12:00,
2013-06-16 17:17:00,62.2,58.0,29.74,SSE,157,0.0,2.2,86,0.00,,,0.70,WUHU21623XXSP,2013-06-16 22:17:00,
2013-06-16 17:22:00,62.4,58.2,29.75,SSE,157,0.0,2.2,86,0.00,,,0.70,WUHU21623XXSP,2013-06-16 22:22:00,
2013-06-16 17:27:00,62.2,58.0,29.77,NW,315,8.1,8.7,86,0.02,,,0.72,WUHU21623XXSP,2013-06-16 22:27:00,
2013-06-16 17:32:00,60.6,55.5,29.77,WNW,292,3.4,8.7,83,0.06,,,0.76,WUHU21623XXSP,2013-06-16 22:32:00,
2013-06-16 17:37:00,60.4,55.6,29.78,NW,315,0.0,8.3,84,0.08,,,0.78,WUHU21623XXSP,2013-06-16 22:37:00,
2013-06-16 17:42:00,59.9,55.1,29.77,NNW,337,4.0,8.3,84,0.08,,,0.78,WUHU21623XXSP,2013-06-16 22:42:00,
2013-06-16 17:47:00,59.2,54.7,29.75,North,0,4.3,7.4,85,0.08,,,0.78,WUHU21623XXSP,2013-06-16 22:47:00,
2013-06-16 17:52:00,58.8,54.3,29.75,NNE,22,0.4,6.3,85,0.08,,,0.78,WUHU21623XXSP,2013-06-16 22:52:00,
2013-06-16 17:57:00,58.6,54.5,29.74,NNE,22,1.1,2.7,86,0.08,,,0.78,WUHU21623XXSP,2013-06-16 22:57:00,
2013-06-16 18:02:00,58.8,55.0,29.74,North,0,0.0,3.4,87,0.08,,,0.78,WUHU21623XXSP,2013-06-16 23:02:00,
2013-06-16 18:07:00,60.1,56.2,29.73,North,0,0.0,3.4,87,0.08,,,0.78,WUHU21623XXSP,2013-06-16 23:07:00,
2013-06-16 18:12:00,61.5,57.3,29.74,NNE,22,1.8,2.9,86,0.08,,,0.78,WUHU21623XXSP,2013-06-16 23:12:00,
2013-06-16 18:17:00,63.1,58.2,29.74,NNW,337,2.7,6.0,84,0.08,,,0.78,WUHU21623XXSP,2013-06-16 23:17:00,
2013-06-16 18:22:00,63.1,57.5,29.74,NNW,337,0.0,6.0,82,0.08,,,0.78,WUHU21623XXSP,2013-06-16 23:22:00,
2013-06-16 18:27:00,62.8,57.5,29.74,NNW,337,0.7,2.9,83,0.06,,,0.78,WUHU21623XXSP,2013-06-16 23:27:00,
2013-06-16 18:32:00,63.3,57.7,29.74,NNW,337,0.0,2.9,82,0.02,,,0.78,WUHU21623XXSP,2013-06-16 23:32:00,
2013-06-16 18:37:00,63.3,56.7,29.74,NW,315,0.0,7.4,79,0.00,,,0.78,WUHU21623XXSP,2013-06-16 23:37:00,
2013-06-16 18:42:00,62.8,57.2,29.74,NW,315,0.0,7.4,82,0.00,,,0.78,WUHU21623XXSP,2013-06-16 23:42:00,
2013-06-16 18:47:00,62.4,57.5,29.75,NW,315,0.0,0.7,84,0.00,,,0.78,WUHU21623XXSP,2013-06-16 23:47:00,
2013-06-16 18:52:00,62.4,57.1,29.75,NNW,337,0.0,4.9,83,0.00,,,0.78,WUHU21623XXSP,2013-06-16 23:52:00,
2013-06-16 18:57:00,62.4,56.8,29.75,WSW,247,0.0,4.9,82,0.00,,,0.78,WUHU21623XXSP,2013-06-16 23:57:00,
2013-06-16 19:02:00,63.0,57.7,29.75,SW,225,0.0,1.6,83,0.00,,,0.78,WUHU21623XXSP,2013-06-17 00:02:00,
2013-06-16 19:07:00,63.1,57.2,29.75,SW,225,0.0,2.5,81,0.00,,,0.78,WUHU21623XXSP,2013-06-17 00:07:00,
2013-06-16 19:12:00,62.4,56.1,29.76,ESE,112,0.0,4.7,80,0.00,,,0.78,WUHU21623XXSP,2013-06-17 00:12:00,
2013-06-16 19:17:00,61.9,56.3,29.76,ESE,112,0.0,4.7,82,0.00,,,0.78,WUHU21623XXSP,2013-06-17 00:17:00,
2013-06-16 19:22:00,61.9,56.1,29.76,NE,52,0.2,0.5,81,0.00,,,0.78,WUHU21623XXSP,2013-06-17 00:22:00,
2013-06-16 19:27:00,62.2,56.3,29.76,ESE,112,1.1,1.1,81,0.00,,,0.78,WUHU21623XXSP,2013-06-17 00:27:00,
2013-06-16 19:32:00,62.1,55.5,29.76,NNE,22,0.0,1.3,79,0.00,,,0.78,WUHU21623XXSP,2013-06-17 00:32:00,
2013-06-16 19:37:00,62.2,55.3,29.76,East,93,0.2,1.6,78,0.00,,,0.78,WUHU21623XXSP,2013-06-17 00:37:00,
2013-06-16 19:42:00,61.7,56.2,29.76,SSE,157,0.0,1.6,82,0.00,,,0.78,WUHU21623XXSP,2013-06-17 00:42:00,
2013-06-16 19:47:00,61.3,56.1,29.76,SE,136,0.2,1.3,83,0.00,,,0.78,WUHU21623XXSP,2013-06-17 00:47:00,
2013-06-16 19:52:00,61.3,55.5,29.76,SSE,151,0.2,1.1,81,0.00,,,0.78,WUHU21623XXSP,2013-06-17 00:52:00,
2013-06-16 19:57:00,61.3,56.1,29.76,SSE,147,0.4,2.5,83,0.00,,,0.78,WUHU21623XXSP,2013-06-17 00:57:00,
2013-06-16 20:02:00,61.0,56.1,29.76,SE,146,0.5,2.5,84,0.00,,,0.78,WUHU21623XXSP,2013-06-17 01:02:00,
2013-06-16 20:07:00,60.6,55.1,29.76,SE,135,0.0,1.6,82,0.00,,,0.78,WUHU21623XXSP,2013-06-17 01:07:00,
2013-06-16 20:12:00,60.8,55.3,29.76,SSE,157,0.0,1.6,82,0.00,,,0.78,WUHU21623XXSP,2013-06-17 01:12:00,
2013-06-16 20:17:00,60.1,55.3,29.75,SE,143,0.3,1.8,84,0.00,,,0.78,WUHU21623XXSP,2013-06-17 01:17:00,
2013-06-16 20:22:00,59.5,54.7,29.76,SE,136,0.3,2.5,84,0.00,,,0.78,WUHU21623XXSP,2013-06-17 01:22:00,
2013-06-16 20:27:00,59.2,54.4,29.75,SE,134,0.3,2.5,84,0.00,,,0.78,WUHU21623XXSP,2013-06-17 01:27:00,
2013-06-16 20:32:00,58.8,54.0,29.75,ENE,67,0.0,1.3,84,0.00,,,0.78,WUHU21623XXSP,2013-06-17 01:32:00,
2013-06-16 20:37:00,58.8,54.0,29.75,SE,135,0.0,1.3,84,0.00,,,0.78,WUHU21623XXSP,2013-06-17 01:37:00,
2013-06-16 20:42:00,58.8,54.3,29.75,SE,135,0.0,1.3,85,0.00,,,0.78,WUHU21623XXSP,2013-06-17 01:42:00,
2013-06-16 20:47:00,58.8,54.6,29.75,North,352,0.0,0.1,86,0.00,,,0.78,WUHU21623XXSP,2013-06-17 01:47:00,
2013-06-16 20:52:00,58.6,54.5,29.76,SE,135,0.0,0.1,86,0.00,,,0.78,WUHU21623XXSP,2013-06-17 01:52:00,
2013-06-16 20:57:00,58.8,54.6,29.76,SE,135,0.0,0.0,86,0.00,,,0.78,WUHU21623XXSP,2013-06-17 01:57:00,
2013-06-16 21:02:00,58.3,54.1,29.77,SE,135,0.0,0.0,86,0.00,,,0.78,WUHU21623XXSP,2013-06-17 02:02:00,
2013-06-16 21:07:00,58.3,54.1,29.76,SE,135,0.0,0.0,86,0.00,,,0.78,WUHU21623XXSP,2013-06-17 02:07:00,
2013-06-16 21:12:00,58.3,54.1,29.77,SE,135,0.0,0.0,86,0.00,,,0.78,WUHU21623XXSP,2013-06-17 02:12:00,
2013-06-16 21:17:00,58.1,53.9,29.77,SE,135,0.0,0.0,86,0.00,,,0.78,WUHU21623XXSP,2013-06-17 02:17:00,
2013-06-16 21:22:00,57.9,53.7,29.77,SE,135,0.0,0.0,86,0.00,,,0.78,WUHU21623XXSP,2013-06-17 02:22:00,
2013-06-16 21:27:00,58.3,54.1,29.78,SE,135,0.0,0.0,86,0.00,,,0.78,WUHU21623XXSP,2013-06-17 02:27:00,
2013-06-16 21:32:00,57.9,53.7,29.78,SE,135,0.0,0.0,86,0.00,,,0.78,WUHU21623XXSP,2013-06-17 02:32:00,
2013-06-16 21:37:00,57.6,53.7,29.79,North,0,0.0,0.0,87,0.00,,,0.78,WUHU21623XXSP,2013-06-17 02:37:00,
2013-06-16 21:42:00,57.6,53.7,29.79,SE,135,0.0,0.0,87,0.00,,,0.78,WUHU21623XXSP,2013-06-17 02:42:00,
2013-06-16 21:47:00,57.6,53.7,29.79,SE,135,0.0,0.0,87,0.00,,,0.78,WUHU21623XXSP,2013-06-17 02:47:00,
2013-06-16 21:52:00,57.7,53.9,29.79,SE,135,0.0,0.0,87,0.00,,,0.78,WUHU21623XXSP,2013-06-17 02:52:00,
2013-06-16 21:57:00,57.7,53.9,29.79,SE,135,0.0,0.0,87,0.00,,,0.78,WUHU21623XXSP,2013-06-17 02:57:00,
2013-06-16 22:02:00,57.7,53.9,29.78,SE,135,0.0,0.0,87,0.00,,,0.78,WUHU21623XXSP,2013-06-17 03:02:00,
2013-06-16 22:07:00,57.7,53.9,29.78,SE,135,0.0,0.7,87,0.00,,,0.78,WUHU21623XXSP,2013-06-17 03:07:00,
2013-06-16 22:12:00,57.6,53.7,29.78,SE,135,0.0,0.7,87,0.00,,,0.78,WUHU21623XXSP,2013-06-17 03:12:00,
2013-06-16 22:17:00,57.4,53.5,29.78,SE,135,0.0,0.0,87,0.00,,,0.78,WUHU21623XXSP,2013-06-17 03:17:00,
2013-06-16 22:22:00,57.4,53.5,29.78,SE,135,1.1,1.1,87,0.00,,,0.78,WUHU21623XXSP,2013-06-17 03:22:00,
2013-06-16 22:27:00,57.4,53.5,29.77,SE,135,0.0,1.1,87,0.00,,,0.78,WUHU21623XXSP,2013-06-17 03:27:00,
2013-06-16 22:32:00,57.0,53.2,29.78,SE,135,0.0,0.0,87,0.00,,,0.78,WUHU21623XXSP,2013-06-17 03:32:00,
2013-06-16 22:37:00,57.0,53.5,29.77,SE,135,0.0,0.4,88,0.00,,,0.78,WUHU21623XXSP,2013-06-17 03:37:00,
2013-06-16 22:42:00,57.0,53.5,29.77,SE,135,0.0,0.4,88,0.00,,,0.78,WUHU21623XXSP,2013-06-17 03:42:00,
2013-06-16 22:47:00,57.0,53.5,29.78,SE,135,0.0,0.0,88,0.00,,,0.78,WUHU21623XXSP,2013-06-17 03:47:00,
2013-06-16 22:52:00,57.0,53.5,29.78,SE,135,0.0,0.0,88,0.00,,,0.78,WUHU21623XXSP,2013-06-17 03:52:00,
2013-06-16 22:57:00,57.0,53.5,29.79,SE,135,0.0,0.0,88,0.00,,,0.78,WUHU21623XXSP,2013-06-17 03:57:00,
2013-06-16 23:01:00,57.0,53.5,29.79,SE,135,0.0,0.0,88,0.00,,,0.78,WUHU21623XXSP,2013-06-17 04:01:00,
2013-06-16 23:06:00,57.4,53.9,29.78,SE,135,0.0,0.0,88,0.02,,,0.80,WUHU21623XXSP,2013-06-17 04:06:00,
2013-06-16 23:11:00,57.4,53.9,29.78,SE,135,0.0,0.0,88,0.02,,,0.80,WUHU21623XXSP,2013-06-17 04:11:00,
2013-06-16 23:16:00,57.4,53.9,29.78,SE,135,0.0,0.0,88,0.02,,,0.80,WUHU21623XXSP,2013-06-17 04:16:00,
2013-06-16 23:21:00,57.4,53.9,29.78,SE,135,0.0,0.0,88,0.02,,,0.80,WUHU21623XXSP,2013-06-17 04:21:00,
2013-06-16 23:26:00,57.4,53.9,29.78,SE,135,0.0,0.0,88,0.02,,,0.80,WUHU21623XXSP,2013-06-17 04:26:00,
2013-06-16 23:31:00,57.6,54.0,29.78,SE,135,0.0,0.0,88,0.02,,,0.80,WUHU21623XXSP,2013-06-17 04:31:00,
2013-06-16 23:36:00,57.4,53.9,29.78,SE,135,0.0,0.0,88,0.02,,,0.80,WUHU21623XXSP,2013-06-17 04:36:00,
2013-06-16 23:41:00,57.6,54.4,29.78,SE,135,0.0,0.0,89,0.02,,,0.80,WUHU21623XXSP,2013-06-17 04:41:00,
2013-06-16 23:46:00,57.6,54.4,29.78,SE,135,0.0,0.0,89,0.02,,,0.80,WUHU21623XXSP,2013-06-17 04:46:00,
2013-06-16 23:51:00,57.4,54.2,29.78,SE,135,0.0,0.0,89,0.02,,,0.80,WUHU21623XXSP,2013-06-17 04:51:00,
2013-06-16 23:56:00,57.0,53.8,29.77,SE,135,0.0,0.0,89,0.02,,,0.80,WUHU21623XXSP,2013-06-17 04:56:00,